Starlink 11663

operational
NORAD ID: 63668 Int'l Des: 2025-085 Owner: SPXS Country: US Constellation: starlink
LEOCIRCULAR

Über Starlink 11663

Beschreibung wird geladen...

Live-Position

3D-Globus wird geladen...

Nächste Überflüge

Höhenverlauf

Altitude vs Time

uPlot chart will show altitude changes over time

Zweizeiliger Elementsatz

1 63668U 25085E 25304.39564360 .00236363 00000-0 17867-2 0 9993
2 63668 43.0002 338.0816 0001004 268.0926 91.9827 15.70932332 29919
Epoch: 31. Okt. 2025 • Age: 20 hours

Aktueller Status

Höhe 354.6 km
Geschwindigkeit 7.70 km/s
Subsatellitenpunkt 18.47°N, 128.52°W
Startdatum 28. Apr. 2025
Alter 0.5 years
Typ internet

Technische Details

Klassifizierung Payload
Masse 960.00 kg
Trockenmasse 910.00 kg
Gesamtmasse 960.00 kg
Länge 0.30 m
Durchmesser 4.10 m
Spannweite 29.00 m
Form Box + pan
Hersteller SPXS
Bus-Typ Starlink V2MD
Phasenstatus In Orbit
Besitzer/Staat SPXS/US

Große Konstellationen

Loading constellations...